This is the latest recevied weather packets stored in our database for station/object W3JGB. If no packets are shown the sender has not sent any weather packets the latest 1 day(s).
| Time | Temp. | Humidity | Pressure | Rain* | Wind** | Luminosity | Snow |
|---|---|---|---|---|---|---|---|
| 1777995718 | 24.44° C | 48% | 1008 hPa | 0 mm | 0.89 m/s, 17° | 445 W/m² | - |
| 1777995415 | 25° C | 47% | 1007.9 hPa | 0 mm | 1.79 m/s, 142° | 202 W/m² | - |
| 1777995112 | 25° C | 48% | 1008 hPa | 0 mm | 2.24 m/s, 137° | 506 W/m² | - |
| 1777994809 | 25° C | 48% | 1008 hPa | 0 mm | 1.34 m/s, 274° | 455 W/m² | - |
| 1777994505 | 25° C | 49% | 1007.9 hPa | 0 mm | 0.89 m/s, 281° | 164 W/m² | - |
| 1777994200 | 25° C | 48% | 1008 hPa | 0 mm | 1.34 m/s, 229° | 549 W/m² | - |
| 1777993898 | 25° C | 50% | 1008 hPa | 0 mm | 0.89 m/s, 229° | 540 W/m² | - |
| 1777993594 | 25° C | 51% | 1008.2 hPa | 0 mm | 0.45 m/s, 7° | 162 W/m² | - |
| 1777993291 | 25° C | 49% | 1008.2 hPa | 0 mm | 1.34 m/s, 239° | 126 W/m² | - |
| 1777992986 | 24.44° C | 49% | 1007.9 hPa | 0 mm | 1.34 m/s, 30° | 640 W/m² | - |
| 1777992685 | 24.44° C | 51% | 1008.2 hPa | 0 mm | 0.89 m/s, 343° | 646 W/m² | - |
| 1777992382 | 24.44° C | 51% | 1008.4 hPa | 0 mm | 0.89 m/s, 77° | 541 W/m² | - |
| 1777992080 | 23.89° C | 52% | 1008.4 hPa | 0 mm | 0.45 m/s, 224° | 513 W/m² | - |
| 1777991778 | 23.89° C | 51% | 1008.2 hPa | 0 mm | 1.34 m/s, 252° | 430 W/m² | - |
| 1777991474 | 23.89° C | 52% | 1008.2 hPa | 0 mm | 0.89 m/s, 215° | 397 W/m² | - |
| 1777991172 | 23.89° C | 52% | 1008.2 hPa | 0 mm | 0.45 m/s, 14° | 437 W/m² | - |
| 1777990869 | 23.89° C | 52% | 1008 hPa | 0 mm | 0.89 m/s, 77° | 471 W/m² | - |
| 1777990566 | 23.89° C | 52% | 1008.1 hPa | 0 mm | 1.79 m/s, 255° | 325 W/m² | - |
| 1777990263 | 23.89° C | 51% | 1008 hPa | 0 mm | 0.45 m/s, 347° | 490 W/m² | - |
| 1777989960 | 22.78° C | 51% | 1008.2 hPa | 0 mm | 0.89 m/s, 36° | 282 W/m² | - |
| 1777989656 | 23.33° C | 53% | 1008.2 hPa | 0 mm | 1.34 m/s, 340° | 315 W/m² | - |
| 1777989352 | 23.33° C | 54% | 1008.2 hPa | 0 mm | 0.45 m/s, 321° | 247 W/m² | - |
| 1777989049 | 23.33° C | 52% | 1008.4 hPa | 0 mm | 0.89 m/s, 59° | 393 W/m² | - |
| 1777988745 | 22.78° C | 53% | 1008.5 hPa | 0 mm | 1.34 m/s, 199° | 548 W/m² | - |
| 1777988443 | 23.33° C | 53% | 1008.4 hPa | 0 mm | 1.34 m/s, 296° | 486 W/m² | - |
* Rain latest hour (hover to see other rain measurements)
** Current wind speed in m/s (hover to see current wind gust speed)